This is the latest recevied weather packets stored in our database for station/object K7FRY. If no packets are shown the sender has not sent any weather packets the latest 10 day(s).
| Time | Temp. | Humidity | Pressure | Rain* | Wind** | Luminosity | Snow |
|---|---|---|---|---|---|---|---|
| 1777824984 | 26.67° C | 35% | 1016.2 hPa | 0 mm | - | 436 W/m² | - |
| 1777824680 | 26.67° C | 36% | 1016.3 hPa | 0 mm | - | 399 W/m² | - |
| 1777824378 | 26.67° C | 36% | 1016.4 hPa | 0 mm | - | 456 W/m² | - |
| 1777824073 | 26.11° C | 37% | 1016.7 hPa | 0 mm | - | 517 W/m² | - |
| 1777823770 | 25.56° C | 38% | 1016.4 hPa | 0 mm | - | 576 W/m² | - |
| 1777823467 | 25.56° C | 37% | 1016.5 hPa | 0 mm | - | 599 W/m² | - |
| 1777823164 | 25.56° C | 37% | 1016.4 hPa | 0 mm | - | 593 W/m² | - |
| 1777822862 | 25° C | 38% | 1016.2 hPa | 0 mm | - | 519 W/m² | - |
| 1777822560 | 25° C | 39% | 1016.3 hPa | 0 mm | - | 475 W/m² | - |
| 1777822257 | 24.44° C | 39% | 1016.6 hPa | 0 mm | - | 437 W/m² | - |
| 1777821954 | 24.44° C | 39% | 1016.5 hPa | 0 mm | - | 317 W/m² | - |
| 1777821652 | 23.89° C | 40% | 1016.5 hPa | 0 mm | - | 255 W/m² | - |
| 1777821350 | 23.89° C | 40% | 1016.4 hPa | 0 mm | - | 277 W/m² | - |
| 1777821046 | 23.89° C | 40% | 1016.5 hPa | 0 mm | - | 224 W/m² | - |
| 1777820743 | 23.89° C | 40% | 1016.4 hPa | 0 mm | - | 281 W/m² | - |
| 1777820439 | 23.33° C | 40% | 1016.7 hPa | 0 mm | - | 256 W/m² | - |
| 1777820137 | 23.89° C | 40% | 1016.4 hPa | 0 mm | - | 294 W/m² | - |
| 1777819834 | 22.78° C | 41% | 1016.4 hPa | 0 mm | - | 191 W/m² | - |
| 1777819531 | 22.78° C | 41% | 1016.4 hPa | 0 mm | - | 227 W/m² | - |
| 1777819229 | 22.78° C | 42% | 1016.3 hPa | 0 mm | - | 200 W/m² | - |
| 1777818925 | 22.78° C | 41% | 1016.3 hPa | 0 mm | - | 242 W/m² | - |
| 1777818621 | 22.78° C | 42% | 1016.5 hPa | 0 mm | - | 241 W/m² | - |
| 1777818319 | 22.22° C | 42% | 1016.5 hPa | 0 mm | - | 209 W/m² | - |
| 1777818015 | 22.22° C | 43% | 1016.6 hPa | 0 mm | - | 176 W/m² | - |
| 1777817713 | 21.67° C | 43% | 1016.5 hPa | 0 mm | - | 131 W/m² | - |
* Rain latest hour (hover to see other rain measurements)
** Current wind speed in m/s (hover to see current wind gust speed)